Dewpoint
40 40 37 35 35 36 39 40 40 42 42 42 42 42 42 42 41 38 29 42 38 33 31 33 35 33 36 30 26 27 29 31 38 38 32 27 25 25 25 26 25 26 24 22 22 23 23 26 26 26 32 35 33 33
40 40 39 36 35 36 38 39 40 41 41 42 43 43 42 42 42 41 32 40 42 37 35 39 38 39 38 41 43 43 35 40 36 37 37 29 25 31 23 21 24 23 23 23 24 25 31 28 33 37 36 35 35 34
41 41 41 40 39 39 37 40 40 42 42 42 42 42 43 43 43 41 36 39 41 37 36 37 35 38 41 42 45 45 46 50 48 50 48 40 30 30 25 25 30 32 35 34 31 30 29 31 36 35 36 37 35 39
40 42 40 41 40 40 42 42 42 43 42 42 42 42 43 43 43 42 39 40 40 36 31 36 41 40 40 44 45 46 47 48 50 48 48 47 33 36 29 29 32 31 34 35 31 32 34 33 35 36 37 36 39 39
39 40 39 38 38 40 41 41 41 40 40 41 42 42 42 42 42 41 42 42 43 36 31 36 39 40 43 46 41 43 47 48 48 46 47 42 39 37 34 32 34 32 37 34 33 37 36 35 36 37 36 39 39 38
40 41 39 40 41 39 40 41 42 42 42 43 42 42 41 40 40 40 36 40 43 42 34 33 39 43 42 46 44 46 49 49 49 48 46 44 46 40 34 31 34 33 38 34 38 39 38 38 37 37 39 39 38 37
39 39 38 38 40 41 41 42 42 42 42 41 41 41 40 40 40 37 36 41 43 44 38 34 36 44 43 44 48 49 49 49 47 47 43 41 41 40 35 32 35 35 38 40 40 39 38 38 37 39 38 38 38 35
38 39 39 39 40 40 41 42 42 41 40 41 41 41 40 40 40 38 40 41 42 42 40 33 36 43 44 42 45 46 46 46 46 44 44 39 39 35 35 35 36 37 39 40 39 40 39 39 39 38 38 38 35 30
37 39 40 40 40 41 41 40 39 39 39 40 41 41 40 39 36 38 45 47 47 43 35 35 35 36 44 43 46 43 45 42 44 44 38 36 34 32 35 36 38 40 41 41 40 40 39 39 38 38 38 37 33 26
38 39 39 39 40 41 40 40 40 40 40 40 40 36 32 38 41 45 40 37 37 40 41 35 39 37 43 39 44 42 43 41 41 39 40 34 32 36 38 40 41 40 40 40 39 39 39 39 39 38 38 36 30 24
36 37 38 39 39 40 40 40 39 39 39 37 35 34 39 43 42 38 32 31 33 34 38 38 38 38 42 40 41 44 43 37 33 33 36 30 29 37 39 40 41 41 40 40 40 40 40 40 39 39 38 34 27 25
37 37 38 39 39 40 41 40 39 38 38 37 38 40 42 39 34 31 30 32 31 33 38 38 41 43 41 39 41 40 38 37 33 38 35 29 31 38 40 40 41 42 41 41 41 41 41 40 40 39 36 31 27 27
38 39 39 40 40 40 40 40 39 39 39 38 36 32 32 32 28 28 27 31 32 36 41 41 42 40 40 39 37 37 33 36 37 38 29 30 37 40 41 42 42 41 42 41 41 42 41 41 41 39 35 31 34 32
38 38 38 38 38 38 39 40 40 39 37 30 30 27 29 29 30 29 28 26 36 39 40 44 41 37 35 34 36 32 34 36 31 31 26 35 39 41 43 43 42 41 42 41 42 41 42 42 40 38 36 34 32 31
37 36 37 38 39 38 39 38 39 40 34 29 30 27 31 32 31 33 35 39 39 41 39 43 39 33 33 34 34 32 32 31 26 22 28 37 42 43 44 42 42 42 42 42 41 42 42 39 37 35 34 33 32 31
36 37 37 38 38 38 39 39 38 38 35 31 30 30 35 34 35 39 37 37 42 42 43 44 35 29 28 30 30 26 24 21 22 30 37 40 44 44 44 43 43 43 42 42 43 41 39 38 36 35 34 33 31 30
37 35 38 38 38 39 39 39 37 33 32 32 32 36 35 36 36 37 37 39 45 44 41 37 26 25 26 23 19 20 21 36 40 40 39 42 45 45 44 44 43 43 42 43 41 39 38 37 36 35 33 31 30 30
35 38 38 39 38 40 38 38 36 34 32 34 32 36 37 39 39 39 42 42 45 44 41 38 29 24 22 18 20 37 39 37 39 42 42 45 45 45 45 44 43 42 42 41 39 39 37 36 35 34 32 31 30 29
36 37 38 38 37 38 33 34 37 32 33 34 36 37 39 41 42 43 43 44 44 44 43 38 25 23 22 24 34 38 39 41 44 43 44 45 46 46 45 44 43 42 40 39 38 37 36 35 34 32 30 30 29 29
35 36 38 38 38 36 33 35 37 34 34 35 37 38 39 41 42 42 44 45 44 41 38 36 38 39 38 38 41 43 42 45 45 44 45 46 46 46 44 44 42 40 39 39 38 36 35 34 32 31 30 30 30 29
36 37 37 38 38 38 36 35 35 36 36 36 37 39 38 42 40 39 40 42 44 40 40 40 40 41 42 42 41 41 44 45 45 46 46 46 46 45 44 43 41 40 40 39 37 36 36 35 32 32 32 32 32 31
35 35 35 34 35 36 35 36 35 36 35 36 37 39 37 37 37 37 40 39 37 38 39 40 40 41 41 40 40 41 42 44 46 46 45 45 45 44 44 43 42 42 41 40 39 38 38 36 34 34 35 36 34 34
33 35 33 32 31 32 33 37 34 36 32 34 37 35 35 35 38 40 35 37 38 40 40 40 42 43 43 43 43 41 42 44 45 45 44 45 45 45 44 43 43 43 42 41 41 42 39 36 36 38 38 36 36 35
31 30 28 29 29 29 34 33 34 34 35 34 34 31 33 35 37 34 31 33 35 36 37 38 41 42 43 43 42 42 43 42 44 44 45 44 44 43 44 44 44 44 43 43 43 42 40 39 39 39 38 38 37 34
27 25 29 26 30 29 29 30 32 32 31 33 32 31 32 37 32 31 30 30 32 32 32 34 37 43 41 42 42 43 43 43 44 44 44 44 44 44 44 44 44 44 44 44 43 41 41 40 40 39 39 37 35 34
23 26 25 25 26 28 30 29 30 31 31 30 30 32 34 34 30 27 27 28 30 30 29 30 32 39 42 43 42 43 43 44 44 44 45 45 45 45 45 44 44 44 44 45 42 41 41 40 40 39 37 36 35 36
24 26 27 30 31 31 31 31 33 31 29 28 30 31 33 29 26 26 29 28 28 29 30 32 34 37 40 41 42 43 44 44 44 45 45 45 46 45 46 45 44 45 46 44 42 41 40 39 39 38 36 36 36 36
27 28 25 28 29 30 29 29 28 27 28 30 31 25 24 23 20 24 27 28 27 29 31 36 39 41 41 42 42 43 45 45 44 45 45 45 45 45 45 45 45 44 46 43 42 41 40 39 38 37 36 35 35 36
25 28 26 26 27 27 27 28 27 28 30 30 27 24 22 23 24 24 25 26 29 30 31 33 35 39 40 41 40 40 42 44 43 42 40 40 42 42 44 43 44 45 42 41 40 40 39 38 37 37 36 36 36 35
25 28 25 25 25 24 27 30 29 32 33 31 28 27 26 25 25 27 25 25 25 25 27 31 32 34 35 36 36 37 38 40 43 40 38 39 41 42 43 44 42 40 39 38 37 36 36 36 36 36 35 34 34 34
27 27 25 25 25 27 29 31 33 33 32 31 31 28 26 26 27 26 24 24 24 24 23 24 27 28 28 30 32 35 36 37 38 40 41 41 41 40 40 40 38 38 37 36 36 36 35 35 35 35 34 34 34 34
26 26 26 22 24 28 32 30 31 29 30 30 29 31 30 29 24 24 24 24 23 21 21 21 22 24 26 30 32 33 34 35 36 37 38 37 37 37 37 37 36 36 35 35 35 35 35 35 34 34 34 33 33 33
26 25 25 24 24 25 29 30 27 28 28 28 27 27 27 25 19 22 23 24 24 22 21 22 23 26 28 31 31 33 34 34 33 34 36 36 36 35 35 35 35 35 35 35 35 35 35 35 34 34 34 33 33 33
Wind_Speed
10 10 7 4 4 8 15 21 24 25 25 26 26 28 30 29 26 20 14 10 11 8 18 13 17 27 26 19 17 12 17 10 10 7 9 17 13 15 15 21 25 18 14 12 12 12 7 23 23 16 13 30 34 31
4 5 6 7 8 7 12 17 21 23 24 24 26 27 26 24 21 21 11 7 10 8 12 18 25 33 33 29 18 10 10 2 10 10 4 21 16 9 24 24 19 17 14 10 3 8 22 23 17 19 31 35 30 32
18 4 2 1 5 15 10 17 16 21 24 25 23 22 23 22 22 20 11 6 5 5 16 18 19 21 33 30 21 6 2 9 6 10 5 8 17 7 17 11 10 5 16 10 11 14 22 21 21 21 28 32 33 33
19 19 21 17 12 12 12 19 15 21 23 23 22 20 19 20 20 19 11 4 3 2 7 8 15 19 16 24 25 19 15 13 15 11 3 9 9 5 9 18 13 8 11 13 24 21 19 19 23 28 30 33 36 32
16 13 19 19 20 18 12 16 20 20 19 17 16 16 17 16 15 12 9 10 11 5 6 12 26 23 18 16 20 13 10 12 14 5 5 4 2 8 9 10 8 12 19 11 15 26 11 23 28 31 35 37 34 34
6 7 1 14 11 13 15 16 16 15 14 14 14 14 13 11 8 4 5 15 19 10 4 6 10 10 17 19 13 12 11 10 8 6 6 2 4 4 10 7 10 9 22 12 19 23 24 27 30 32 36 33 32 33
8 9 9 13 13 13 13 14 15 15 13 11 10 10 10 8 6 6 6 4 8 6 5 6 7 8 23 16 7 7 10 9 8 7 3 5 5 5 7 6 17 15 14 23 34 27 27 32 33 32 33 32 33 31
5 5 6 7 9 11 12 14 15 14 11 8 7 5 4 6 6 11 17 19 9 5 4 5 7 7 21 16 6 6 5 8 5 3 4 8 2 3 6 25 20 21 24 27 29 28 32 31 33 33 33 35 34 32
3 4 4 4 6 10 13 14 13 11 7 6 6 5 4 4 4 5 6 10 6 6 4 6 5 10 17 11 5 1 10 7 3 5 3 5 3 3 24 26 26 28 20 27 24 28 30 35 35 34 35 34 34 32
6 4 3 3 4 11 12 12 11 9 6 4 5 3 4 7 5 9 4 3 1 5 6 6 6 7 19 13 5 4 5 9 9 3 2 4 5 11 22 22 25 19 28 33 34 29 31 33 36 36 35 32 32 34
3 1 1 3 4 8 11 10 9 7 2 3 4 6 7 8 9 4 5 6 6 5 7 8 14 7 18 16 14 4 7 6 8 6 5 5 6 19 21 23 19 23 29 30 32 35 35 38 36 34 31 29 30 32
5 5 6 6 6 6 12 12 11 4 2 4 6 5 4 6 3 6 8 5 7 6 8 11 15 12 13 14 8 5 5 5 6 8 4 7 11 21 24 24 22 23 24 22 28 29 28 29 30 32 32 31 30 28
6 1 4 7 7 8 16 14 15 6 7 2 3 5 5 6 7 7 11 6 6 5 8 13 9 13 9 6 6 2 4 6 9 3 8 8 21 22 24 22 24 23 22 26 26 26 28 28 27 27 30 27 25 28
2 3 4 6 7 7 8 11 11 6 2 3 3 7 7 7 9 9 14 12 6 5 12 6 13 14 11 7 4 5 3 0 2 5 9 20 26 25 25 25 27 24 26 28 29 30 29 25 25 25 24 28 32 30
5 6 9 11 12 13 14 13 12 4 4 5 5 6 9 9 9 8 5 5 2 5 8 12 8 9 9 8 2 5 8 4 7 6 11 22 25 28 27 27 26 25 28 29 29 28 26 27 28 26 25 25 25 26
10 13 5 8 6 11 13 13 8 5 4 5 7 7 8 7 8 6 7 3 0 5 7 8 7 11 10 14 11 8 12 6 6 9 19 25 26 27 27 26 24 26 29 29 27 26 27 27 29 28 25 24 24 26
10 5 3 7 14 14 17 9 7 7 7 6 6 10 13 7 11 11 6 4 4 6 6 8 8 9 11 7 11 8 2 10 14 15 16 22 27 27 26 26 27 27 28 28 28 27 25 26 28 27 25 22 23 21
6 7 10 7 5 6 3 5 8 9 9 9 7 8 4 6 7 5 4 7 5 5 8 6 4 7 14 16 10 8 9 10 10 14 18 22 24 25 24 28 27 28 28 27 28 28 28 29 27 22 23 26 23 23
11 12 12 7 9 3 6 5 6 7 9 4 4 7 4 2 3 6 6 2 5 8 13 9 7 11 11 7 20 16 15 14 17 17 18 20 22 24 26 25 26 27 28 29 30 27 26 26 23 25 26 26 24 23
14 12 11 8 9 6 5 5 3 3 5 3 2 2 2 3 3 5 6 4 3 7 3 5 7 13 14 12 13 17 16 16 21 22 20 19 20 24 24 24 23 27 26 25 23 25 25 22 21 23 24 24 27 26
9 2 5 6 2 0 2 2 3 1 2 1 1 2 1 1 4 4 4 8 3 6 5 8 8 8 7 10 13 15 14 16 16 19 23 23 20 20 21 20 24 23 25 24 26 24 22 22 24 23 24 23 21 21
4 5 3 1 3 6 3 2 1 1 1 1 2 1 3 4 5 5 4 2 3 3 5 7 8 7 9 10 11 12 12 14 16 18 19 20 22 22 21 23 23 23 22 24 25 26 23 22 23 23 22 21 23 21
2 3 3 2 2 3 3 1 1 2 2 4 3 4 3 3 2 1 3 4 2 7 8 5 8 10 11 12 12 13 15 17 18 17 19 17 18 18 19 19 20 23 23 19 20 20 22 24 25 24 23 23 22 21
1 2 3 1 1 1 1 1 1 0 1 1 1 3 3 4 3 5 4 3 6 12 15 16 8 8 10 12 12 11 12 14 16 17 16 19 19 19 17 19 18 18 18 22 21 21 21 23 25 23 24 23 22 25
2 7 6 4 4 2 2 1 3 3 2 2 3 3 1 1 3 4 4 6 12 15 16 17 18 9 11 9 10 10 11 13 16 17 16 17 18 18 18 16 16 17 20 22 21 22 22 23 21 22 22 24 26 26
4 4 3 6 5 3 3 3 3 5 4 4 3 2 3 3 4 4 3 6 7 10 15 16 16 11 11 10 11 10 9 10 14 14 13 15 15 18 21 22 21 18 18 19 24 27 25 22 23 25 23 22 22 23
4 5 4 3 3 3 3 5 6 7 5 5 4 6 3 4 5 4 1 6 6 8 14 13 12 12 9 10 11 10 9 9 12 12 11 11 12 13 15 18 22 19 21 23 24 26 29 28 25 24 22 20 21 23
4 8 6 10 7 8 5 5 6 7 4 6 1 6 4 5 4 5 5 9 11 12 13 10 8 9 12 10 9 10 13 14 15 15 16 13 10 9 11 11 12 14 17 19 20 19 22 24 26 26 26 25 23 20
5 11 6 11 6 7 9 7 7 5 8 4 3 4 5 5 6 7 6 13 12 7 9 12 12 9 9 11 14 14 12 3 11 12 12 12 7 6 6 11 16 14 17 19 17 17 19 20 20 21 22 20 19 19
10 13 6 8 6 8 8 7 4 7 7 6 6 6 5 4 7 9 10 12 15 15 12 11 13 13 12 12 12 15 16 16 11 7 8 9 7 7 7 11 13 14 15 18 18 20 20 20 20 18 18 19 19 18
6 9 6 8 5 4 6 9 6 5 8 10 10 6 5 6 5 15 22 18 14 15 19 19 15 16 15 16 13 11 12 12 11 10 8 8 9 9 10 12 13 14 16 17 18 20 21 21 21 22 22 22 21 20
6 7 4 4 3 5 5 5 4 4 5 5 6 5 2 4 6 7 15 20 19 22 19 16 14 13 14 12 9 8 7 7 7 6 4 7 9 10 10 11 13 14 15 15 15 17 19 19 19 20 21 21 21 20
3 6 5 3 3 4 4 3 3 2 4 4 6 5 6 6 6 9 10 16 14 13 13 12 11 10 11 11 13 11 10 10 9 8 6 9 10 10 11 11 12 14 15 15 14 16 17 18 18 18 18 19 19 18
Wind_Direction
320 332 2 64 116 172 179 179 175 171 176 176 178 178 178 184 189 201 228 191 221 273 269 247 267 281 287 235 231 216 222 209 208 238 223 165 184 183 174 189 187 164 179 190 181 181 153 150 156 172 135 136 142 141
308 336 5 85 131 151 144 149 155 161 162 162 164 169 176 177 181 199 236 221 232 236 280 304 275 257 260 269 303 295 218 344 222 249 290 184 171 177 160 177 182 183 189 170 144 176 134 151 126 129 136 139 138 138
19 311 242 37 133 152 149 159 148 159 157 152 164 173 174 179 186 193 216 251 245 261 285 259 254 244 227 231 245 270 90 351 340 341 302 250 136 178 166 148 133 97 110 117 97 127 133 124 123 134 138 132 133 130
40 67 76 68 94 115 145 142 165 148 147 156 161 165 176 187 191 200 223 245 246 299 280 292 309 247 243 211 217 223 274 306 295 287 31 296 125 160 147 144 142 154 119 133 112 119 115 134 136 135 131 132 128 134
88 78 97 86 93 116 115 115 119 132 138 145 152 163 176 182 191 210 235 243 233 186 291 294 301 270 250 258 214 221 241 274 295 272 203 286 90 106 129 129 129 163 143 141 168 150 139 145 138 139 138 135 139 140
90 171 124 156 170 124 112 112 118 126 135 144 152 160 167 174 177 212 252 224 215 184 259 293 306 263 204 224 205 211 225 250 247 304 240 312 345 108 128 125 147 174 156 163 152 156 145 141 141 140 136 138 141 140
40 63 104 111 107 108 111 114 117 120 123 128 141 164 168 174 177 221 241 293 343 192 242 274 275 212 194 180 159 212 231 248 237 260 247 170 179 197 115 120 132 131 111 116 134 134 137 142 142 135 137 138 135 137
39 62 83 101 118 123 126 124 121 121 121 123 133 156 193 189 252 263 255 262 258 230 243 263 265 210 175 169 155 195 211 224 232 256 276 155 178 107 80 124 129 120 121 130 139 148 144 136 132 137 137 137 138 141
41 68 93 123 142 139 137 134 127 123 126 136 153 148 199 211 236 254 251 238 187 230 226 226 253 154 184 141 101 174 226 204 214 227 149 192 160 62 141 137 136 134 136 137 135 140 139 138 140 143 144 145 144 145
65 84 119 127 143 156 152 147 131 114 120 120 183 192 226 215 203 157 25 51 354 242 223 250 259 186 174 131 104 243 253 194 181 168 202 158 70 113 133 140 142 145 146 138 139 144 144 146 148 151 154 152 149 148
5 26 161 178 172 170 167 146 135 132 173 205 218 222 247 178 178 148 201 201 205 231 228 236 239 189 159 125 135 239 279 206 166 168 177 126 124 136 134 138 145 149 150 156 156 155 154 151 151 151 153 148 148 149
278 257 230 233 228 220 177 164 160 182 234 312 318 297 261 189 185 190 194 193 216 228 213 209 214 206 127 128 141 238 291 277 109 157 105 131 144 140 140 145 141 141 142 141 144 146 149 150 152 151 149 149 149 147
260 19 188 192 190 212 194 186 188 233 350 310 231 252 197 177 198 206 172 208 217 223 236 191 230 135 134 94 110 219 296 38 112 86 140 130 148 142 145 142 141 145 151 140 144 144 146 147 148 150 145 142 129 129
317 266 251 232 218 207 206 209 208 216 220 266 233 254 222 182 213 210 197 207 185 250 311 258 190 149 131 100 112 205 227 126 128 139 164 145 152 148 146 145 148 156 142 144 144 144 144 139 136 131 131 133 135 138
268 307 297 262 235 234 231 210 225 172 173 248 241 241 220 231 234 195 174 121 96 277 306 295 231 131 112 101 204 188 146 211 214 162 151 149 150 148 148 151 153 143 141 142 144 141 134 133 130 126 129 132 130 134
306 309 224 179 227 250 236 217 204 161 239 238 241 270 259 257 194 166 173 120 268 296 298 242 234 151 167 147 185 204 155 174 172 131 134 147 150 149 149 151 147 144 143 144 139 137 135 134 137 135 131 133 139 144
290 229 212 278 285 261 207 188 161 193 226 233 253 244 265 294 188 202 177 154 55 310 240 220 187 168 135 179 177 158 120 104 109 115 136 147 146 147 149 144 142 143 142 139 139 139 134 133 135 136 136 148 148 145
234 246 270 292 232 201 107 159 187 208 231 239 248 242 228 272 205 154 136 114 249 258 302 262 158 171 169 172 154 121 110 112 113 126 132 136 139 145 144 142 144 145 142 142 144 140 142 144 148 148 144 150 142 149
288 288 301 254 207 202 163 185 230 217 219 262 245 256 226 138 125 117 151 178 251 288 302 283 170 183 166 169 123 124 130 138 125 123 127 131 139 139 138 143 142 141 143 148 147 150 152 154 151 147 151 150 151 155
283 281 269 227 227 185 179 181 162 210 212 210 227 238 335 63 75 58 118 159 281 259 246 320 47 37 76 72 110 128 135 138 134 131 132 137 136 139 146 147 145 145 146 144 142 141 146 141 142 152 154 155 153 159
271 51 267 247 215 25 235 196 199 285 349 121 188 277 121 185 78 53 50 8 252 4 32 37 56 58 48 57 94 120 139 145 140 142 143 141 145 145 147 144 143 148 146 146 147 152 152 150 152 155 153 154 154 154
9 331 303 107 189 209 178 154 42 65 257 167 173 146 83 26 54 21 1 52 61 351 340 335 28 85 86 91 111 131 140 124 126 126 131 139 145 150 150 150 151 149 151 153 153 155 151 150 151 151 149 149 150 150
302 285 278 202 321 6 59 111 240 159 159 165 157 106 104 105 109 42 56 48 69 357 336 321 339 74 90 87 100 120 129 132 135 140 142 142 142 141 144 145 148 149 149 155 153 149 149 148 148 148 145 146 149 144
35 356 354 91 49 174 175 333 240 25 48 132 164 119 124 136 137 90 124 79 359 359 6 350 328 118 113 116 115 118 135 145 134 144 142 142 141 147 148 147 152 151 154 149 149 146 140 144 146 146 150 149 147 154
26 357 353 16 323 95 67 61 17 49 98 42 49 61 146 155 76 48 48 17 3 3 357 353 355 117 106 109 111 115 132 145 147 137 145 147 145 145 145 147 150 156 149 148 144 140 142 147 149 151 151 153 157 162
73 12 26 359 1 26 19 56 41 29 36 48 34 313 283 94 74 65 46 7 359 0 354 352 348 2 77 108 107 107 100 117 138 143 145 149 155 151 147 147 150 155 161 152 147 146 150 152 152 154 159 162 163 155
37 43 18 346 278 331 53 39 38 43 37 24 343 347 30 70 73 59 65 23 4 331 324 318 323 346 351 64 49 36 42 106 119 112 120 132 139 151 154 157 160 159 152 151 155 157 157 159 161 164 163 166 171 170
358 13 33 357 41 39 55 49 28 20 353 329 355 32 55 39 53 345 352 349 329 313 306 309 328 357 30 45 53 37 47 65 82 78 74 66 88 115 142 147 139 136 139 147 155 155 159 164 166 168 168 172 173 175
28 357 42 23 51 56 31 31 19 357 328 337 54 64 78 60 359 353 330 331 324 353 27 29 22 18 42 49 51 44 34 83 146 137 130 127 119 65 71 116 128 116 129 141 146 153 156 162 164 167 168 167 166 165
0 350 57 29 46 49 19 11 346 341 13 64 97 106 101 105 49 23 22 17 25 26 15 19 25 35 47 53 54 49 35 36 58 118 147 152 144 130 118 110 110 119 129 138 137 135 129 129 128 130 135 141 150 158
357 354 46 50 60 24 335 327 323 27 31 33 40 64 103 137 134 40 27 17 19 30 31 21 20 24 24 23 23 38 48 34 36 45 68 100 120 128 120 115 122 128 134 140 145 150 151 154 156 158 160 164 169 169
23 29 38 67 51 338 329 1 25 48 33 34 32 24 65 80 65 42 19 7 14 17 6 357 1 357 345 343 3 27 31 28 24 17 51 116 126 123 118 120 124 130 136 143 149 152 157 156 159 165 167 167 168 170
18 17 43 58 36 24 9 341 26 50 48 56 42 32 39 48 69 22 6 7 6 4 343 325 320 329 346 9 19 22 32 33 29 29 86 116 117 119 121 123 131 138 142 145 149 154 155 156 157 158 160 162 164 166